カタログに戻る

STARLINK-35196

運用中通信VLEO
NORAD 66007·PAYLOAD·🇺🇸 United States

打ち上げ Oct 16, 2025 から Cape Canaveral Space Force Station

Loading…

次のパス (今後24時間)

TLE

最新Source: CelesTrak SupGP

元期: Sep 15, 2026, 03:38 UTC

1 66007C 25232C   26258.15187500  .00019896  00000+0  58778-3 0  2581
2 66007  53.1573 302.3577 0001228  89.3050 303.4174 15.34383459    18

AllMySatでSTARLINK-35196をリアルタイム追跡

Download on the App Store